Regional Weather Roundup
Issued by NWS

Home | Current Version | Previous Version | Text Only | Print | Product List | Glossary Off
Versions: 1 2 3 4 5 6 7 8 9 10 11 12 13 14 15 16 17 18 19 20 21 22 23 24 25 26 27 28 29 30 31 32 33 34 35 36 37 38 39 40 41 42 43 44 45 46 47 48 49 50

428
ASUS45 KBOU 190410
RWRCO

WEATHER ROUNDUP FOR COLORADO
NATIONAL WEATHER SERVICE DENVER/BOULDER CO
900 PM MST THU JAN 18 2018

NOTE: "FAIR" INDICATES FEW OR NO CLOUDS BELOW 12000 FEET WITH NO
SIGNIFICANT WEATHER AND/OR OBSTRUCTIONS TO VISIBILITY.

COZ001>005-013-030-031-190500-
...NORTHWEST COLORADO...

CITY           SKY/WX    TMP DP  RH WIND       PRES   REMARKS
CRAIG          FAIR      24  15  68 SE5       30.11F WCI  18
HAYDEN         FAIR     N/A N/A N/A E15       30.14F
MEEKER         FAIR      30  22  72 NE3       30.13F
RABBIT EARS PA FAIR      30  16  55 SW7       30.22S WCI  23
STEAMBOAT SPGS FAIR      24  18  75 CALM      30.15S
WALDEN         FAIR      27  10  50 E9        30.15F WCI  17
$$

COZ006>008-011-190500-
...WEST CENTRAL VALLEYS...

CITY           SKY/WX    TMP DP  RH WIND       PRES   REMARKS
GRAND JUNCTION FAIR      30  19  63 E5        30.16F WCI  25
MONTROSE       FAIR      28  17  63 SE7       30.21R WCI  21
EAGLE          FAIR      22  13  68 CALM      30.23S
RIFLE          FAIR      28  22  78 CALM      30.18F
DELTA          FAIR      33  17  51 NE6       30.19S WCI  27
NUCLA          FAIR      34  18  51 E10       30.23S WCI  26
$$

COZ017>023-064>068-190500-
...SOUTHWEST COLORADO...

CITY           SKY/WX    TMP DP  RH WIND       PRES   REMARKS
DURANGO        FAIR      27  17  66 E3        30.21S
CORTEZ         FAIR      26  18  71 NE3       30.22R
PAGOSA SPRINGS FAIR      28  18  65 CALM      30.22S
TELLURIDE      FAIR      33  14  46 SE7       30.26R WCI  26
WOLF CREEK PAS FAIR      32   7  34 S6        30.37S WCI  26
$$

COZ009-010-012-014-032>034-037-058>063-190500-
...CENTRAL COLORADO...

CITY           SKY/WX    TMP DP  RH WIND       PRES   REMARKS
ASPEN          FAIR      26  13  57 S7        30.19R WCI  18
BUENA VISTA    FAIR      24   7  46 W7        30.15S WCI  16
COPPER MTN     NOT AVBL
BERTHOUD PASS  FAIR      27  14  59 NW13G20   30.27F WCI  16
COTTONWOOD PAS   N/A     46   9  21 W10G18    30.19F
GUNNISON       FAIR      17  10  74 CALM      30.25S
KREMMLING      FAIR      19  12  73 CALM      30.24R
LEADVILLE      FAIR      22  10  60 CALM      30.20F
MONARCH PASS   FAIR      27   5  39 W31       30.37F WCI  10
SALIDA         FAIR      37   5  26 CALM      30.20S
SUNLIGHT       FAIR      28   5  37 SW13      30.29S WCI  18
WILKERSON PASS FAIR      36   0  21 W9        30.26S
$$

COZ069>075-190500-
...SAN LUIS VALLEY/SANGRE DE CRISTO MOUNTAINS...

CITY           SKY/WX    TMP DP  RH WIND       PRES   REMARKS
ALAMOSA        FAIR      19  -2  39 SW7       30.19S WCI  10
DEL NORTE      FAIR      21  -2  36 W10       30.21F WCI  10
LA VETA PASS   FAIR      30   5  34 SW26        N/A  WCI  16
SAGUACHE       FAIR      25   3  39 NW5       30.21S WCI  19
$$

COZ035-036-038>040-190500-
...NORTHERN COLORADO FRONT RANGE...

CITY           SKY/WX    TMP DP  RH WIND       PRES   REMARKS
DENVER INTL AP MOCLDY    44  14  29 SW12      29.95S
DMNS CITY PARK NOT AVBL
AURORA         MOCLDY    44  11  26 S8        29.97S
FRONT RANGE AP MOCLDY    39  19  45 S10G17    29.96S
ERIE MUNI ARPT FAIR      31  20  62 SW3       29.99F
BOULDER MUN AP FAIR      45  18  33 SW6       29.94S
CENTENNIAL     MOCLDY    39  10  30 E7        29.97S
BROOMFIELD     MOCLDY    50  16  25 W7        29.96F
FORT COLLINS   FAIR      39  23  52 CALM      29.94F
LONGMONT       FAIR      35  22  57 W5        29.96S WCI  31
$$

COZ041-046-047-076>085-087-088-190500-
...PIKES PEAK/PALMER DIVIDE AND SOUTHERN FOOTHILLS...

CITY           SKY/WX    TMP DP  RH WIND       PRES   REMARKS
COLO. SPRINGS  MOCLDY    34   7  32 N8        30.03F WCI  27
A. F. ACADEMY  FAIR      26   8  45 N12       30.03F WCI  16
SCHRIEVER AFB  FAIR      34   7  31 CALM      30.03F
CHEYENNE MTN   FAIR      42  11  28 NW3       29.99F
ELLICOTT         N/A    N/A N/A N/A CALM      30.00F
FALCON         FAIR      31   5  33 W7        30.05S WCI  24
FORT CARSON    FAIR      33  11  40 NW10        N/A  WCI  25
LIMON          FAIR      26  13  57 N8        29.98F WCI  18
MONUMENT HILL  FAIR      36  10  35 S10       30.04S
CANON CITY     FAIR      37  10  32 W10       30.00F
WALSENBURG     FAIR      46  10  23 W15       30.02F
TRINIDAD       FAIR      36  11  35 W10       30.02F
$$

COZ042>045-048>051-090-091-190500-
...NORTHEAST COLORADO...

CITY           SKY/WX    TMP DP  RH WIND       PRES   REMARKS
GREELEY ARPT   FAIR      27  15  61 NW3       29.94F
AKRON          FAIR      46  14  27 SW14      29.92F
BURLINGTON     FAIR      40  16  37 SW12      29.93F
WRAY           FAIR      39  19  45 W9        29.90F
YUMA           FAIR      34  14  44 W10       29.91S WCI  26
STERLING       FAIR      34  19  55 W3        29.90S
HOLYOKE        FAIR      34  23  64 W7        29.90S WCI  28
FORT MORGAN    FAIR      37  16  42 W3        29.93S
$$

COZ086-089-092>099-190500-
...SOUTHEAST COLORADO...

CITY           SKY/WX    TMP DP  RH WIND       PRES   REMARKS
PUEBLO         FAIR      33  14  45 SW5       29.98S WCI  29
LA JUNTA       FAIR      39  13  34 W5        29.98S
LAMAR          FAIR      21   3  45 S5        29.95F WCI  15
SPRINGFIELD      N/A     34   5  29 SW7       29.97F WCI  28
$$




USA.gov is the U.S. government's official web portal to all federal, state and local government web resources and services.